Flag for Canada Weather past 2 weeks in Welland, Ontario, Canada

Now
67 °F

Mild.


Feels Like: 67 °F
Forecast: N/A
Wind: 17 mph from North

Location: Port Colborne Airport

Current Time: Jul 23, 2014 at 7:53:53 PM

Latest Report: Jul 23, 2014 at 7:00 PM


Visibility: N/A

Pressure: 29.96 "Hg

Humidity: 66%

Dew point: 55 °F

Location of WellandLocation

Historic Weather in Welland — Graph

°F

Welland temperature yesterday

Maximum temperature yesterday: 76 °F (at 11:00 PM)
Minimum temperature yesterday: 69 °F (at 5:00 AM)
Average temperature yesterday: 71 °F

Past Weeks' High & Low Weather Summary

 TemperatureHumidityPressure
High76 °F (Jul 22, 11:00 PM)93% (Jul 15, 7:00 AM)30.26 "Hg (Jul 15, 7:00 AM)
Low54 °F (Jul 17, 6:00 AM)45% (Jul 10, 7:00 PM)29.59 "Hg (Jul 8, 8:00 PM)
Average68 °F72%30.02 "Hg
* Reported Jul 8 6:00 PM — Jul 23 6:00 PM, Welland, Weather by CustomWeather, © 2014

Note: Actual official high and low records may vary slightly from our data, if they occured in-between our weather recording intervals... More about our weather records

Advertising

Welland weather history for previous 24 hours

 ConditionsComfort  
Time TempWeatherWind HumidityBarometerVisibility
6:00 PM
Jul 23
69 °FMild.16 mph60%29.95 "HgN/A
5:00 PM69 °FMild.17 mph61%29.95 "HgN/A
4:00 PM72 °FMild.14 mph60%29.93 "HgN/A
3:00 PM70 °FMild.10 mph69%29.94 "HgN/A
2:00 PM69 °FMild.13 mph74%29.93 "HgN/A
1:00 PM69 °FMild.14 mph74%29.92 "HgN/A
12:00 PM67 °FMild.14 mph79%29.91 "HgN/A
11:00 AM69 °FMild.15 mph83%29.90 "HgN/A
10:00 AM72 °FMild.17 mph89%29.89 "HgN/A
9:00 AM72 °FMild.17 mph89%29.89 "HgN/A
7:00 AM73 °FMild.15 mph89%29.88 "HgN/A
6:00 AM74 °FMild.26 mph83%29.87 "HgN/A
5:00 AM75 °FMild.21 mph80%29.87 "HgN/A
4:00 AM75 °FMild.21 mph81%29.87 "HgN/A
2:00 AM75 °FMild.15 mph80%29.92 "HgN/A
1:00 AM75 °FMild.13 mph79%29.94 "HgN/A
12:00 AM75 °FMild.14 mph78%29.95 "HgN/A
11:00 PM
Jul 22
76 °FMild.14 mph73%29.96 "HgN/A
10:00 PM76 °FMild.15 mph79%29.96 "HgN/A
9:00 PM75 °FMild.14 mph85%29.96 "HgN/A
8:00 PM75 °FMild.9 mph76%29.98 "HgN/A
Weather by CustomWeather, © 2014

See weather overviewHow to use our weather pages